Time,TemperatureF,DewpointF,PressureIn,WindDirection,WindDirectionDegrees,WindSpeedMPH,WindSpeedGustMPH,Humidity,HourlyPrecipIn,Conditions,Clouds,dailyrainin,SoftwareType,DateUTC
2013-07-22 12:49:00,81.3,73.0,29.82,West,267,2.0,4.0,76,0.00,,,0.00,weatherlink.com 1.10,2013-07-22 17:49:00,
2013-07-22 13:02:00,81.6,74.0,29.81,SW,232,2.0,6.0,77,0.00,,,0.00,weatherlink.com 1.10,2013-07-22 18:02:00,
2013-07-22 13:17:00,82.1,73.0,29.81,SSW,212,4.0,5.0,74,0.00,,,0.00,weatherlink.com 1.10,2013-07-22 18:17:00,
2013-07-22 13:32:00,82.4,73.0,29.81,SW,228,3.0,5.0,72,0.00,,,0.00,weatherlink.com 1.10,2013-07-22 18:32:00,
2013-07-22 14:02:00,83.7,75.0,29.81,SW,229,0.0,5.0,75,0.00,,,0.00,weatherlink.com 1.10,2013-07-22 19:02:00,
2013-07-22 14:17:00,84.5,76.0,29.80,West,269,2.0,7.0,75,0.00,,,0.00,weatherlink.com 1.10,2013-07-22 19:17:00,
2013-07-22 14:47:00,86.2,76.0,29.80,West,271,1.0,6.0,72,0.00,,,0.00,weatherlink.com 1.10,2013-07-22 19:47:00,
2013-07-22 15:02:00,86.1,76.0,29.79,WSW,258,1.0,4.0,72,0.00,,,0.00,weatherlink.com 1.10,2013-07-22 20:02:00,
2013-07-22 15:17:00,86.5,74.0,29.79,West,277,3.0,8.0,67,0.00,,,0.00,weatherlink.com 1.10,2013-07-22 20:17:00,
2013-07-22 15:32:00,86.4,75.0,29.79,WNW,290,1.0,3.0,69,0.00,,,0.00,weatherlink.com 1.10,2013-07-22 20:32:00,
2013-07-22 15:47:00,87.2,75.0,29.78,WSW,256,2.0,5.0,67,0.00,,,0.00,weatherlink.com 1.10,2013-07-22 20:47:00,
2013-07-22 16:02:00,87.9,77.0,29.78,North,359,2.0,5.0,70,0.00,,,0.00,weatherlink.com 1.10,2013-07-22 21:02:00,
2013-07-22 16:17:00,86.4,75.0,29.78,WSW,239,2.0,6.0,69,0.00,,,0.00,weatherlink.com 1.10,2013-07-22 21:17:00,
2013-07-22 16:32:00,88.2,75.0,29.77,SSW,203,6.0,9.0,66,0.00,,,0.00,weatherlink.com 1.10,2013-07-22 21:32:00,
2013-07-22 16:47:00,88.0,76.0,29.77,SW,234,1.0,4.0,68,0.00,,,0.00,weatherlink.com 1.10,2013-07-22 21:47:00,
2013-07-22 17:02:00,88.7,76.0,29.76,SW,222,1.0,5.0,66,0.00,,,0.00,weatherlink.com 1.10,2013-07-22 22:02:00,
2013-07-22 17:17:00,88.0,76.0,29.76,WSW,239,1.0,2.0,67,0.00,,,0.00,weatherlink.com 1.10,2013-07-22 22:17:00,
2013-07-22 17:32:00,88.1,76.0,29.76,SW,229,1.0,3.0,68,0.00,,,0.00,weatherlink.com 1.10,2013-07-22 22:32:00,
2013-07-22 17:47:00,88.6,74.0,29.75,SSW,197,2.0,3.0,63,0.00,,,0.00,weatherlink.com 1.10,2013-07-22 22:47:00,
2013-07-22 18:02:00,89.0,76.0,29.75,WNW,285,1.0,2.0,65,0.00,,,0.00,weatherlink.com 1.10,2013-07-22 23:02:00,
2013-07-22 18:18:00,90.2,74.0,29.74,West,279,1.0,2.0,60,0.00,,,0.00,weatherlink.com 1.10,2013-07-22 23:18:00,
2013-07-22 18:33:00,91.4,76.0,29.73,SSW,211,0.0,2.0,61,0.00,,,0.00,weatherlink.com 1.10,2013-07-22 23:33:00,
2013-07-22 18:48:00,91.2,77.0,29.73,SW,228,0.0,1.0,63,0.00,,,0.00,weatherlink.com 1.10,2013-07-22 23:48:00,
2013-07-22 19:03:00,91.4,77.0,29.73,SW,233,0.0,1.0,63,0.00,,,0.00,weatherlink.com 1.10,2013-07-23 00:03:00,
2013-07-22 19:18:00,92.3,78.0,29.73,SW,231,0.0,0.0,63,0.00,,,0.00,weatherlink.com 1.10,2013-07-23 00:18:00,
2013-07-22 19:33:00,92.5,78.0,29.73,SW,217,0.0,1.0,62,0.00,,,0.00,weatherlink.com 1.10,2013-07-23 00:33:00,
2013-07-22 19:48:00,92.3,78.0,29.73,SW,231,0.0,1.0,64,0.00,,,0.00,weatherlink.com 1.10,2013-07-23 00:48:00,
2013-07-22 20:03:00,89.6,77.0,29.73,SSW,203,0.0,0.0,66,0.00,,,0.00,weatherlink.com 1.10,2013-07-23 01:03:00,
2013-07-22 20:18:00,86.6,75.0,29.74,South,174,0.0,0.0,69,0.00,,,0.00,weatherlink.com 1.10,2013-07-23 01:18:00,
2013-07-22 20:33:00,84.8,73.0,29.74,SSE,165,1.0,2.0,68,0.00,,,0.00,weatherlink.com 1.10,2013-07-23 01:33:00,
2013-07-22 20:48:00,83.4,73.0,29.74,SE,140,0.0,1.0,70,0.00,,,0.00,weatherlink.com 1.10,2013-07-23 01:48:00,
2013-07-22 21:03:00,82.0,73.0,29.75,ESE,118,0.0,1.0,74,0.00,,,0.00,weatherlink.com 1.10,2013-07-23 02:03:00,
2013-07-22 21:18:00,81.4,74.0,29.76,SE,124,0.0,1.0,78,0.00,,,0.00,weatherlink.com 1.10,2013-07-23 02:18:00,
2013-07-22 21:33:00,80.7,74.0,29.76,ESE,122,0.0,1.0,81,0.00,,,0.00,weatherlink.com 1.10,2013-07-23 02:33:00,
2013-07-22 21:48:00,80.1,75.0,29.76,SW,231,0.0,2.0,83,0.00,,,0.00,weatherlink.com 1.10,2013-07-23 02:48:00,
2013-07-22 22:03:00,80.8,74.0,29.77,SSW,200,3.0,4.0,80,0.00,,,0.00,weatherlink.com 1.10,2013-07-23 03:03:00,
2013-07-22 22:18:00,81.3,74.0,29.77,SSE,164,2.0,4.0,78,0.00,,,0.00,weatherlink.com 1.10,2013-07-23 03:18:00,
2013-07-22 22:33:00,81.3,74.0,29.77,South,172,2.0,5.0,78,0.00,,,0.00,weatherlink.com 1.10,2013-07-23 03:33:00,
2013-07-22 22:48:00,81.3,74.0,29.78,SSE,167,1.0,4.0,78,0.00,,,0.00,weatherlink.com 1.10,2013-07-23 03:48:00,
2013-07-22 23:03:00,81.3,73.0,29.78,SSW,211,0.0,2.0,77,0.00,,,0.00,weatherlink.com 1.10,2013-07-23 04:03:00,
2013-07-22 23:18:00,81.7,74.0,29.79,SSW,201,2.0,5.0,77,0.00,,,0.00,weatherlink.com 1.10,2013-07-23 04:18:00,
2013-07-22 23:33:00,81.4,74.0,29.78,SSE,168,0.0,4.0,78,0.00,,,0.00,weatherlink.com 1.10,2013-07-23 04:33:00,
2013-07-22 23:48:00,79.6,73.0,29.79,SE,131,0.0,1.0,81,0.00,,,0.00,weatherlink.com 1.10,2013-07-23 04:48:00,